Terminal Aerodrome Forecast
Issued by NWS Jackson, KY

Home | Current Version | Previous Version | Text Only | Print | Product List | Glossary On
Versions: 1 2 3 4 5 6 7 8 9 10 11 12 13
000
FTUS43 KJKL 021135
TAFLOZ
TAF
KLOZ 021135Z 0212/0312 00000KT 3SM BR SCT250
     FM021300 VRB06KT P6SM FEW060=

USA.gov is the U.S. government's official web portal to all federal, state and local government web resources and services.